EWG12D EDJA-EDJA

Flight info

Callsign EWG12D
Flight time 0h 7m
Altitude 16000
Route LUPOL5B LUPOL Z714 PELOG/N0275F080 Z714 LEBSO/N0272F070 T728 ARSUT/N0268F060 T125 REUTL REUTL5A
Aircraft A320/M-SDE3FGHIRWY/LB1

Departure

Time 2026-04-21 17:44
Airport Memmingen Allgau Airport (EDJA)

Arrival

Time 2026-04-21 17:51
Airport Memmingen Allgau Airport (EDJA)
Time Latitude Longitude Altitude Speed Heading
2026-04-21 17:32 47.98761 10.22884 2074 ft 0 kts 49°
2026-04-21 17:39 47.98761 10.22885 2074 ft 0 kts 52°
2026-04-21 17:39 47.98755 10.22897 2076 ft 0 kts 129°
2026-04-21 17:39 47.98743 10.22897 2076 ft 2 kts 191°
2026-04-21 17:39 47.98702 10.22813 2077 ft 11 kts 252°
2026-04-21 17:40 47.98675 10.22720 2075 ft 9 kts 211°
2026-04-21 17:40 47.98624 10.22715 2080 ft 6 kts 181°
2026-04-21 17:40 47.98587 10.22714 2081 ft 4 kts 181°
2026-04-21 17:40 47.98581 10.22714 2081 ft 0 kts 181°
2026-04-21 17:41 47.98580 10.22714 2081 ft 0 kts 181°
2026-04-21 17:41 47.98578 10.22714 2082 ft 0 kts 181°
2026-04-21 17:41 47.98577 10.22714 2082 ft 0 kts 181°
2026-04-21 17:42 47.98513 10.22698 2083 ft 28 kts 203°
2026-04-21 17:43 47.98426 10.22553 2087 ft 1 kts 201°
2026-04-21 17:43 47.98363 10.22581 2088 ft 13 kts 135°
2026-04-21 17:43 47.98389 10.22712 2086 ft 22 kts 59°
2026-04-21 17:43 47.98681 10.23417 2080 ft 130 kts 58°
2026-04-21 17:44 47.99235 10.24809 2645 ft 166 kts 61°
2026-04-21 17:44 47.99804 10.26417 3667 ft 185 kts 65°
2026-04-21 17:44 47.99740 10.28300 4665 ft 194 kts 125°
2026-04-21 17:44 47.98560 10.28802 6053 ft 186 kts 201°
2026-04-21 17:45 47.97332 10.27506 5400 ft 269 kts 220°
2026-04-21 17:45 47.95861 10.25027 4198 ft 337 kts 237°
2026-04-21 17:45 47.95801 10.22137 5258 ft 245 kts 304°
2026-04-21 17:45 47.97048 10.21268 5688 ft 192 kts 16°
2026-04-21 17:46 47.98185 10.22350 4735 ft 208 kts 52°
2026-04-21 17:46 47.98998 10.24257 3671 ft 220 kts 59°
2026-04-21 17:46 47.99654 10.26280 3178 ft 209 kts 75°
2026-04-21 17:46 47.99201 10.28099 3237 ft 198 kts 142°
2026-04-21 17:47 47.97910 10.27809 2999 ft 216 kts 225°
2026-04-21 17:47 47.97189 10.25812 2786 ft 212 kts 248°
2026-04-21 17:47 47.96746 10.23832 3152 ft 190 kts 256°
2026-04-21 17:47 47.96490 10.21957 3516 ft 181 kts 264°
2026-04-21 17:48 47.96391 10.20731 3675 ft 180 kts 267°
2026-04-21 17:48 47.96293 10.18220 3957 ft 182 kts 269°
2026-04-21 17:48 47.96243 10.16220 3618 ft 205 kts 271°
2026-04-21 17:48 47.96267 10.14051 3270 ft 208 kts 275°
2026-04-21 17:49 47.96491 10.11967 3195 ft 186 kts 308°
2026-04-21 17:49 47.97448 10.11211 3447 ft 164 kts 21°
2026-04-21 17:49 47.98052 10.12455 3231 ft 167 kts 88°
2026-04-21 17:49 47.97931 10.14182 3209 ft 171 kts 115°
2026-04-21 17:50 47.97085 10.15511 3206 ft 186 kts 130°
2026-04-21 17:50 47.96861 10.17261 2741 ft 184 kts 69°
2026-04-21 17:50 47.97230 10.19043 2689 ft 172 kts 70°
2026-04-21 17:50 47.97653 10.20639 2520 ft 159 kts 63°
2026-04-21 17:51 47.98140 10.22064 2207 ft 152 kts 58°
2026-04-21 17:51 47.98638 10.23329 2083 ft 125 kts 58°
2026-04-21 17:51 47.98811 10.23753 2076 ft 7 kts 29°
2026-04-21 17:51 47.98851 10.23749 2078 ft 27 kts 345°
2026-04-21 17:52 47.98910 10.23664 2074 ft 0 kts 275°
2026-04-21 17:52 47.98907 10.23636 2075 ft 7 kts 259°
2026-04-21 17:52 47.98877 10.23496 2079 ft 14 kts 251°
2026-04-21 17:52 47.98855 10.23384 2082 ft 1 kts 258°
2026-04-21 17:53 47.98855 10.23373 2082 ft 1 kts 275°
2026-04-21 17:53 47.98858 10.23352 2081 ft 3 kts 284°
2026-04-21 17:53 47.98875 10.23336 2080 ft 4 kts 340°
2026-04-21 17:53 47.98885 10.23331 2080 ft 3 kts 340°
2026-04-21 17:54 47.98906 10.23320 2080 ft 1 kts 345°
2026-04-21 17:54 47.98908 10.23320 2080 ft 0 kts 347°
2026-04-21 17:54 47.98899 10.23323 2080 ft 7 kts 347°
2026-04-21 17:54 47.98885 10.23327 2080 ft 1 kts 347°
2026-04-21 17:55 47.98901 10.23322 2080 ft 4 kts 347°
2026-04-21 17:55 47.98913 10.23318 2080 ft 0 kts 348°
2026-04-21 17:55 47.98877 10.23329 2080 ft 2 kts 348°
2026-04-21 17:55 47.98879 10.23329 2080 ft 0 kts 348°